Flag for U.S.A. Weather past 2 weeks in Warren, Michigan, U.S.A.

Now
59 °F

Light rain. Broken clouds.


Feels Like: 57 °F
Forecast: 53 / 67 °F
Wind: 13 mph from North

Location: Detroit City Airport

Current Time: Sep 21, 2014 at 6:22:19 PM

Latest Report: Sep 21, 2014 at 5:53 PM


Visibility: 10 mi

Pressure: 29.77 "Hg

Humidity: 81%

Dew point: 53 °F

Location of WarrenLocation

Historic Weather in Warren — Graph

°F

Warren temperature yesterday

Maximum temperature yesterday: 80 °F (at 2:53 PM)
Minimum temperature yesterday: 57 °F (at 12:53 AM)
Average temperature yesterday: 68 °F

Past Weeks' High & Low Weather Summary

 TemperatureHumidityPressure
High80 °F (Sep 20, 2:53 PM)97% (Sep 9, 1:53 AM)30.37 "Hg (Sep 9, 1:53 AM)
Low44 °F (Sep 14, 6:53 AM)35% (Sep 17, 4:53 PM)29.60 "Hg (Sep 21, 6:53 AM)
Average61 °F70%30.08 "Hg
* Reported Sep 8 2:53 AM — Sep 21 4:53 PM, Warren, Weather by CustomWeather, © 2014

Note: Actual official high and low records may vary slightly from our data, if they occured in-between our weather recording intervals... More about our weather records

Advertising

Warren weather history for previous 24 hours

 ConditionsComfort  
Time TempWeatherWind HumidityBarometerVisibility
4:53 PM
Sep 21
63 °FMore clouds than sun.14 mph73%29.71 "Hg10 mi
3:53 PM65 °FLight rain. Mostly cloudy.12 mph66%29.67 "Hg10 mi
2:53 PM64 °FMostly cloudy.7 mph68%29.67 "Hg10 mi
1:53 PM63 °FLight rain. Cloudy.10 mph68%29.68 "Hg10 mi
12:53 PM68 °FMostly cloudy.18 mph51%29.67 "Hg10 mi
11:53 AM70 °FPartly sunny.17 mph53%29.66 "Hg10 mi
11:03 AM66 °FBroken clouds.14 mph65%29.67 "Hg10 mi
10:53 AM66 °FCloudy.10 mph68%29.66 "Hg10 mi
9:53 AM66 °FBroken clouds.15 mph70%29.65 "Hg10 mi
8:53 AM66 °FSunny.14 mph75%29.63 "Hg10 mi
7:53 AM66 °FClear.13 mph78%29.61 "Hg10 mi
6:53 AM67 °FLight rain. Overcast.12 mph81%29.60 "Hg10 mi
4:57 AM67 °FLight rain. Fog.8 mph87%29.63 "Hg3 mi
3:53 AM67 °FLow clouds.12 mph87%29.66 "Hg9 mi
2:53 AM68 °FLow clouds.14 mph82%29.70 "Hg10 mi
1:53 AM68 °FLow clouds.10 mph84%29.75 "Hg10 mi
12:53 AM68 °FOvercast.12 mph84%29.76 "Hg10 mi
11:53 PM
Sep 20
67 °FMostly cloudy.10 mph85%29.78 "Hg9 mi
10:53 PM67 °FPassing clouds.10 mph81%29.80 "Hg10 mi
9:53 PM67 °FLight rain. Passing clouds.14 mph85%29.80 "Hg10 mi
8:53 PM68 °FRain. Overcast.15 mph84%29.82 "Hg6 mi
7:53 PM72 °FLight rain. Mostly cloudy.6 mph76%29.80 "Hg7 mi
6:53 PM77 °FPartly sunny.9 mph58%29.78 "Hg10 mi
Weather by CustomWeather, © 2014

See weather overviewHow to use our weather pages